Flag for South Africa

Past Weather in Cape Town, South Africa — Yesterday and Last 2 Weeks

Now
54 °F

Rain. Partly sunny.


Feels Like: 49 °F
Forecast: 57 / 54 °F
Wind: 17 mph from Northwest

Location: Cape Town International Airport

Current Time: Jul 9, 2020 at 5:30:51 pm

Latest Report: Jul 9, 2020 at 4:49 pm


Visibility: 2 mi

Pressure: 29.68 "Hg

Humidity: 94%

Dew Point: 52 °F

Location of Cape TownLocation

Past Weather in Cape Town — Graph

°F

Cape Town Temperature Yesterday

Maximum temperature yesterday: 73 °F (at 4:00 pm)
Minimum temperature yesterday: 39 °F (at 5:00 am)
Average temperature yesterday: 54 °F

High & Low Weather Summary for the Past Weeks

 TemperatureHumidityPressure
High73 °F (Jul 8, 4:00 pm)100% (Jun 27, 12:07 pm)30.36 "Hg (Jun 27, 12:07 pm)
Low39 °F (Jul 8, 5:00 am)20% (Jul 8, 4:00 pm)29.53 "Hg (Jul 9, 6:00 am)
Average55 °F83%30.09 "Hg
* Reported Jun 24 4:00 pm — Jul 9 4:30 pm, Cape Town. Weather by CustomWeather, © 2020

Note: Actual official high and low records may vary slightly from our data, if they occured in-between our weather recording intervals... More about our weather records

Cape Town Weather History for the Previous 24 Hours

Scroll right to see more
 ConditionsComfort  
Time TempWeatherWind HumidityBarometerVisibility
4:30 pm
Thu, Jul 9
54 °FLight rain. Partly sunny.21 mph94%29.65 "Hg2 mi
4:00 pm55 °FRain. Partly sunny.20 mph94%29.65 "Hg2 mi
3:00 pm54 °FRain. Partly sunny.22 mph94%29.65 "Hg2 mi
2:00 pm55 °FRain. Partly sunny.20 mph94%29.65 "Hg1 mi
1:59 pm55 °FRain. Partly sunny.20 mph94%29.65 "Hg1 mi
1:00 pm55 °FRain. Partly sunny.25 mph94%29.65 "Hg2 mi
12:55 pm55 °FRain. Partly sunny.25 mph94%29.65 "Hg2 mi
12:39 pm57 °FHeavy rain. Partly sunny.30 mph94%29.62 "Hg1 mi
12:29 pm57 °FRain. Partly sunny.30 mph94%29.62 "Hg1 mi
12:00 pm59 °FLight rain. Partly sunny.32 mph82%29.59 "Hg2 mi
11:46 am61 °FRain. Partly sunny.31 mph77%29.59 "Hg2 mi
11:00 am61 °FPartly sunny.30 mph77%29.62 "HgN/A
10:25 am61 °FPartly sunny.29 mph77%29.62 "HgN/A
10:00 am61 °FPartly sunny.31 mph77%29.59 "HgN/A
9:00 am59 °FScattered clouds.30 mph77%29.59 "HgN/A
8:00 am59 °FPassing clouds.33 mph77%29.56 "HgN/A
7:54 am59 °FPassing clouds.33 mph77%29.56 "HgN/A
7:00 am59 °FPassing clouds.29 mph63%29.56 "HgN/A
6:29 am59 °FPassing clouds.29 mph63%29.56 "HgN/A
6:00 am61 °FClear.30 mph59%29.53 "Hg10 mi
5:29 am61 °FClear.30 mph55%29.56 "Hg10 mi
5:00 am61 °FClear.30 mph55%29.56 "Hg10 mi
4:00 am63 °FClear.29 mph49%29.56 "Hg10 mi
3:00 am64 °FClear.26 mph37%29.56 "Hg10 mi
2:00 am64 °FClear.20 mph34%29.56 "Hg10 mi
1:00 am59 °FClear.3 mph45%29.59 "Hg10 mi
12:00 am59 °FClear.9 mph48%29.62 "Hg10 mi
11:00 pm
Wed, Jul 8
55 °FClear.2 mph55%29.65 "Hg10 mi
10:00 pm57 °FClear.3 mph48%29.68 "Hg10 mi
9:00 pm55 °FClear.2 mph82%29.71 "Hg10 mi
8:00 pm54 °FClear.1 mph82%29.74 "Hg10 mi
7:00 pm59 °FClear.3 mph72%29.77 "Hg10 mi
6:00 pm59 °FClear.5 mph63%29.80 "Hg10 mi
5:00 pm64 °FSunny.6 mph60%29.86 "Hg10 mi
Weather by CustomWeather, © 2020

See weather overview